Location: Contre
(49.7477°N, 2.0963°E)
Time: 10:37:57
(UTC+00:00)

ISS - Pass Details

Date: 06 March 2024
Orbit: 413 x 419 km, 51.6° (Epoch: 13 April)

Event Time Altitude Azimuth Distance (km) Brightness Sun altitude
Exits shadow 05:08:23 21° 237° (WSW) 1,025 -2.3 -13.0°
Maximum altitude 05:09:07 22° 218° (SW) 975 -2.3 -12.8°
Drops below altitude 10° 05:11:49 10° 165° (SSE) 1,511 -0.8 -12.4°
Sets 05:14:12 0° 149° (SSE) 2,371 0.4 -12.0°
